FW8756 Weather Reports


Display with metric or nautical units.
time (UTC)temp
F
wind
direction
speed
MPH
gust
MPH
rain 1hr
in
rain 24hr
in
rain mn
in
humidity
%
barometer
mb
20260506153335 82 152 3.0 3.0 0.00 0.00 0.00 81 1009.2
20260506152832 81 163 0.0 0.0 0.00 0.00 0.00 81 1009.5
20260506152329 81 152 0.0 0.0 0.00 0.00 0.00 82 1009.4
20260506151828 80 143 0.0 1.0 0.00 0.00 0.00 83 1009.3
20260506151324 80 175 1.0 2.0 0.00 0.00 0.00 82 1009.5
20260506150821 80 161 0.0 0.0 0.00 0.00 0.00 83 1009.5
20260506150318 80 167 0.0 0.0 0.00 0.00 0.00 83 1009.6
20260506145814 80 150 0.0 0.0 0.00 0.00 0.00 84 1009.3
20260506145311 79 140 0.0 0.0 0.00 0.00 0.00 85 1009.1
20260506144809 79 162 0.0 0.0 0.00 0.00 0.00 86 1008.9
20260506144305 78 157 0.0 0.0 0.00 0.00 0.00 86 1008.8
20260506143803 78 151 0.0 0.0 0.00 0.00 0.00 87 1008.9
20260506143300 78 148 0.0 0.0 0.00 0.00 0.00 87 1008.8
20260506142758 78 155 0.0 0.0 0.00 0.00 0.00 87 1009.0
20260506142256 78 138 2.0 3.0 0.00 0.00 0.00 87 1008.9
20260506141754 78 182 1.0 3.0 0.00 0.00 0.00 88 1008.8
20260506141252 77 156 0.0 0.0 0.00 0.00 0.00 88 1008.9
20260506140749 77 200 1.0 2.0 0.00 0.00 0.00 88 1008.8
20260506140246 77 155 1.0 3.0 0.00 0.00 0.00 89 1008.9
20260506135743 77 170 0.0 0.0 0.00 0.00 0.00 89 1009.0
20260506135239 77 145 0.0 0.0 0.00 0.00 0.00 89 1008.9
20260506134736 77 125 0.0 1.0 0.00 0.00 0.00 89 1008.9
20260506134233 77 157 0.0 0.0 0.00 0.00 0.00 89 1008.8
20260506133730 77 153 0.0 0.0 0.00 0.00 0.00 89 1008.9
20260506133226 77 158 1.0 1.0 0.00 0.00 0.00 89 1009.1
20260506132723 76 161 0.0 0.0 0.00 0.00 0.00 89 1009.0
20260506132220 76 129 0.0 0.0 0.00 0.00 0.00 89 1008.9
20260506131718 76 151 0.0 0.0 0.00 0.00 0.00 89 1009.0
20260506131214 76 147 0.0 1.0 0.00 0.00 0.00 89 1009.0
20260506130711 76 146 0.0 0.0 0.00 0.00 0.00 89 1009.1
20260506130208 76 148 0.0 0.0 0.00 0.00 0.00 89 1008.9
20260506125706 76 156 0.0 0.0 0.00 0.00 0.00 89 1009.2
20260506125204 76 154 0.0 0.0 0.00 0.00 0.00 89 1008.8
20260506124702 76 160 0.0 0.0 0.00 0.00 0.00 89 1008.8
20260506124159 76 130 0.0 0.0 0.00 0.00 0.00 89 1008.6
20260506123656 76 141 0.0 0.0 0.00 0.00 0.00 89 1008.8
20260506123155 76 138 0.0 0.0 0.00 0.00 0.00 89 1008.6
20260506122652 76 154 0.0 0.0 0.00 0.00 0.00 89 1008.6
20260506122149 76 146 0.0 0.0 0.00 0.00 0.00 89 1008.6
20260506121647 76 152 0.0 0.0 0.00 0.00 0.00 89 1008.6
20260506121143 76 157 0.0 0.0 0.00 0.00 0.00 89 1008.5
20260506120641 76 154 0.0 0.0 0.00 0.00 0.00 89 1008.3
20260506120138 76 152 0.0 0.0 0.00 0.00 0.00 89 1008.3
20260506115637 76 145 0.0 0.0 0.00 0.00 0.00 89 1008.5
20260506115134 76 152 0.0 0.0 0.00 0.00 0.00 89 1008.4
20260506114631 76 151 0.0 0.0 0.00 0.00 0.00 89 1008.4
20260506114129 76 197 0.0 0.0 0.00 0.00 0.00 88 1008.2
20260506113627 76 157 0.0 0.0 0.00 0.00 0.00 88 1008.3
20260506113124 76 149 0.0 0.0 0.00 0.00 0.00 88 1008.3
20260506112620 76 153 0.0 0.0 0.00 0.00 0.00 88 1008.4
20260506112118 76 161 0.0 0.0 0.00 0.00 0.00 88 1008.4
20260506111616 76 154 0.0 0.0 0.00 0.00 0.00 88 1008.1
20260506111113 76 178 0.0 1.0 0.00 0.00 0.00 88 1008.2
20260506110610 76 167 0.0 0.0 0.00 0.00 0.00 88 1008.3
20260506110108 76 102 0.0 0.0 0.00 0.00 0.00 88 1007.9
20260506105604 76 153 0.0 0.0 0.00 0.00 0.00 88 1008.0
20260506105101 76 206 2.0 2.0 0.00 0.00 0.00 88 1007.9
20260506104559 76 164 2.0 2.0 0.00 0.00 0.00 88 1007.5
20260506104056 76 173 0.0 0.0 0.00 0.00 0.00 88 1007.6
20260506103554 76 173 1.0 1.0 0.00 0.00 0.00 88 1007.5
20260506103050 76 55 0.0 0.0 0.00 0.00 0.00 88 1007.4
20260506102549 76 57 0.0 0.0 0.00 0.00 0.00 88 1007.4
20260506102046 76 64 1.0 1.0 0.00 0.00 0.00 88 1007.5
20260506101542 76 49 0.0 0.0 0.00 0.00 0.00 88 1007.7
20260506101039 77 52 0.0 0.0 0.00 0.00 0.00 88 1007.8
20260506100538 76 52 0.0 0.0 0.00 0.00 0.00 88 1007.7
20260506100035 76 151 0.0 0.0 0.00 0.00 0.00 88 1007.6
20260506095534 76 167 0.0 0.0 0.00 0.00 0.00 88 1007.6
20260506095030 76 154 0.0 0.0 0.00 0.00 0.00 88 1007.4
20260506094528 76 168 0.0 0.0 0.00 0.00 0.00 89 1007.3
20260506094026 76 152 0.0 0.0 0.00 0.00 0.00 89 1007.4
20260506093524 76 147 0.0 0.0 0.00 0.00 0.00 89 1007.2
20260506093021 76 164 0.0 0.0 0.00 0.00 0.00 89 1007.3
20260506092519 76 154 0.0 0.0 0.00 0.00 0.00 89 1007.2
20260506092015 76 130 0.0 1.0 0.00 0.00 0.00 89 1007.0
20260506091514 76 154 0.0 0.0 0.00 0.00 0.00 89 1007.2
20260506091010 76 154 0.0 0.0 0.00 0.00 0.00 89 1006.9
20260506090508 76 117 0.0 0.0 0.00 0.00 0.00 89 1006.9
20260506090004 76 183 0.0 0.0 0.00 0.00 0.00 88 1006.9
20260506085501 76 178 0.0 0.0 0.00 0.00 0.00 88 1006.9
20260506084958 76 171 0.0 0.0 0.00 0.00 0.00 88 1007.0
20260506084454 76 180 2.0 3.0 0.00 0.00 0.00 88 1007.1
20260506083950 76 196 2.0 3.0 0.00 0.00 0.00 88 1006.9
20260506083448 76 121 3.0 6.0 0.00 0.00 0.00 88 1006.9
20260506082945 76 166 0.0 1.0 0.00 0.00 0.00 88 1007.0
20260506082442 76 160 0.0 0.0 0.00 0.00 0.00 88 1007.1
20260506081938 76 154 2.0 2.0 0.00 0.00 0.00 88 1007.1
20260506081436 76 142 0.0 0.0 0.00 0.00 0.00 88 1007.0
20260506080933 76 171 1.0 2.0 0.00 0.00 0.00 88 1006.9
20260506080430 76 153 1.0 2.0 0.00 0.00 0.00 88 1007.0
20260506073414 77 170 0.0 1.0 0.00 0.00 0.00 88 1007.3
20260506072911 77 156 1.0 1.0 0.00 0.00 0.00 87 1007.7
20260506072408 77 171 1.0 1.0 0.00 0.00 0.00 87 1007.4
20260506071906 77 135 1.0 2.0 0.00 0.00 0.00 87 1007.6
20260506071404 77 152 0.0 0.0 0.00 0.00 0.00 87 1007.9
20260506070901 77 146 0.0 0.0 0.00 0.00 0.00 87 1007.8
20260506070357 77 154 0.0 0.0 0.00 0.00 0.00 87 1007.9
20260506062335 77 335 3.0 3.0 0.00 0.00 0.00 86 1008.0
20260506061830 77 145 0.0 0.0 0.00 0.00 0.00 86 1007.9
20260506061327 77 158 0.0 0.0 0.00 0.00 0.00 86 1007.7
20260506060826 77 192 1.0 1.0 0.00 0.00 0.00 86 1008.0
20260506060323 77 145 0.0 0.0 0.00 0.00 0.00 86 1007.8
20260506051255 78 164 0.0 0.0 0.00 0.00 0.00 85 1008.2
20260506050753 78 129 3.0 6.0 0.00 0.00 0.00 85 1007.9
20260506050250 78 164 0.0 0.0 0.00 0.00 0.00 85 1007.9
20260506044741 78 183 0.0 1.0 0.00 0.00 0.00 84 1007.9
20260506044238 78 147 1.0 2.0 0.00 0.00 0.00 84 1007.8
20260506043735 78 152 0.0 0.0 0.00 0.00 0.00 84 1007.9
20260506043233 78 159 0.0 0.0 0.00 0.00 0.00 84 1007.8
20260506042731 78 144 1.0 3.0 0.00 0.00 0.00 84 1007.6
20260506042229 78 148 2.0 3.0 0.00 0.00 0.00 84 1007.5
20260506041728 78 265 5.0 6.0 0.00 0.00 0.00 84 1007.4
20260506041224 78 155 0.0 0.0 0.00 0.00 0.00 84 1007.4
20260506040722 78 151 1.0 2.0 0.00 0.00 0.00 83 1007.3
20260506040219 78 157 1.0 2.0 0.00 0.00 0.00 83 1007.5
20260506035715 78 157 2.0 2.0 0.00 0.00 0.00 83 1007.5
20260506035212 78 178 4.0 6.0 0.00 0.00 0.00 83 1007.3
20260506034709 78 162 1.0 1.0 0.00 0.00 0.00 83 1007.4
20260506034206 78 140 0.0 0.0 0.00 0.00 0.00 82 1007.2
20260506033703 78 186 5.0 9.0 0.00 0.00 0.00 82 1007.3
20260506033200 78 141 0.0 0.0 0.00 0.00 0.00 82 1007.5
20260506032657 79 170 0.0 0.0 0.00 0.00 0.00 82 1007.4
20260506032154 79 183 2.0 3.0 0.00 0.00 0.00 82 1007.4
20260506031651 79 169 0.0 0.0 0.00 0.00 0.00 82 1007.1
20260506031148 79 174 0.0 0.0 0.00 0.00 0.00 82 1007.3
20260506030647 79 139 3.0 5.0 0.00 0.00 0.00 82 1006.9
20260506030144 79 178 0.0 1.0 0.00 0.00 0.00 82 1007.1
20260506025640 79 153 0.0 0.0 0.00 0.00 0.00 81 1007.2
20260506025136 79 160 0.0 0.0 0.00 0.00 0.00 81 1007.0
20260506024634 79 162 0.0 1.0 0.00 0.00 0.00 81 1007.3
20260506024130 79 179 0.0 0.0 0.00 0.00 0.00 81 1007.0
20260506023626 79 173 0.0 0.0 0.00 0.00 0.00 81 1006.8
20260506023124 79 116 3.0 3.0 0.00 0.00 0.00 81 1006.7
20260506022621 79 164 3.0 3.0 0.00 0.00 0.00 81 1006.7
20260506022118 79 170 2.0 2.0 0.00 0.00 0.00 81 1006.6
20260506021616 79 161 1.0 1.0 0.00 0.00 0.00 81 1006.6
20260506021113 79 126 0.0 0.0 0.00 0.00 0.00 81 1006.6
20260506020610 80 163 0.0 0.0 0.00 0.00 0.00 81 1006.5
20260506020108 80 182 2.0 2.0 0.00 0.00 0.00 81 1006.3
20260506015605 80 155 0.0 0.0 0.00 0.00 0.00 81 1006.4
20260506015102 80 191 2.0 2.0 0.00 0.00 0.00 81 1006.3
20260506014600 80 159 1.0 2.0 0.00 0.00 0.00 81 1006.0
20260506014055 80 168 2.0 3.0 0.00 0.00 0.00 81 1006.2
20260506013553 80 153 0.0 0.0 0.00 0.00 0.00 81 1005.8
20260506013050 80 162 0.0 0.0 0.00 0.00 0.00 80 1005.9
20260506012546 80 152 0.0 0.0 0.00 0.00 0.00 80 1006.0
20260506012043 80 177 2.0 2.0 0.00 0.00 0.00 80 1005.7
20260506011541 80 220 0.0 0.0 0.00 0.00 0.00 79 1005.7
20260506011036 80 156 0.0 0.0 0.00 0.00 0.00 79 1005.6
20260506010531 80 165 2.0 3.0 0.00 0.00 0.00 79 1005.5
20260506010027 80 218 2.0 3.0 0.00 0.00 0.00 79 1005.7
20260506005524 80 158 0.0 0.0 0.00 0.00 0.00 79 1005.3
20260506005020 80 212 1.0 2.0 0.00 0.00 0.00 79 1005.6
20260506004517 80 146 0.0 0.0 0.00 0.00 0.00 79 1005.3
20260506004014 80 155 0.0 0.0 0.00 0.00 0.00 79 1005.4
20260506003510 81 88 0.0 2.0 0.00 0.00 0.00 79 1005.1
20260506003006 81 152 0.0 0.0 0.00 0.00 0.00 78 1005.3
20260506002502 81 150 0.0 0.0 0.00 0.00 0.00 78 1005.1
20260506001958 81 189 1.0 1.0 0.00 0.00 0.00 78 1005.2
20260506001455 81 210 1.0 1.0 0.00 0.00 0.00 78 1005.6
20260506000952 81 207 0.0 1.0 0.00 0.00 0.00 78 1005.2
20260506000449 82 160 0.0 0.0 0.00 0.00 0.00 78 1005.2
20260505235946 82 155 0.0 0.0 0.00 0.00 0.00 78 1005.3
20260505235445 82 172 0.0 0.0 0.00 0.00 0.00 78 1005.2
20260505234941 82 151 0.0 0.0 0.00 0.00 0.00 78 1005.3
20260505234439 82 158 0.0 1.0 0.00 0.00 0.00 77 1005.1
20260505233935 82 245 2.0 2.0 0.00 0.00 0.00 77 1005.2
20260505233433 82 168 0.0 0.0 0.00 0.00 0.00 77 1005.4
20260505232930 82 172 1.0 1.0 0.00 0.00 0.00 77 1005.3
20260505232428 83 149 0.0 0.0 0.00 0.00 0.00 77 1005.1
20260505231925 83 150 0.0 0.0 0.00 0.00 0.00 77 1005.2
20260505231422 82 139 0.0 0.0 0.00 0.00 0.00 77 1005.4
20260505230920 82 144 4.0 5.0 0.00 0.00 0.00 76 1005.3
20260505230418 83 271 1.0 2.0 0.00 0.00 0.00 76 1005.4
20260505225914 83 10 1.0 2.0 0.00 0.00 0.00 76 1005.3
20260505225411 83 173 0.0 1.0 0.00 0.00 0.00 76 1005.3
20260505224906 84 106 0.0 0.0 0.00 0.00 0.00 75 1005.3
20260505224404 84 272 2.0 3.0 0.00 0.00 0.00 75 1005.3
20260505223901 84 184 2.0 3.0 0.00 0.00 0.00 75 1004.9
20260505223358 84 204 3.0 3.0 0.00 0.00 0.00 75 1005.2
20260505222853 84 199 3.0 3.0 0.00 0.00 0.00 74 1005.3
20260505222350 84 161 1.0 1.0 0.00 0.00 0.00 74 1005.2
20260505221847 84 224 3.0 5.0 0.00 0.00 0.00 74 1005.1
20260505221344 84 154 0.0 0.0 0.00 0.00 0.00 75 1005.3
20260505220841 85 191 6.0 8.0 0.00 0.00 0.00 73 1005.1
20260505220338 85 300 3.0 3.0 0.00 0.00 0.00 73 1005.3
20260505215836 85 191 3.0 5.0 0.00 0.00 0.00 73 1005.2
20260505215333 85 243 2.0 3.0 0.00 0.00 0.00 74 1005.2
20260505214831 85 199 5.0 8.0 0.00 0.00 0.00 73 1005.5
20260505214329 84 182 2.0 3.0 0.00 0.00 0.00 75 1005.6
20260505213825 84 149 0.0 1.0 0.00 0.00 0.00 74 1005.8
20260505213323 85 198 3.0 3.0 0.00 0.00 0.00 74 1005.8
20260505212819 85 167 3.0 3.0 0.00 0.00 0.00 74 1005.9
20260505212317 86 195 4.0 7.0 0.00 0.00 0.00 72 1005.8
20260505211812 85 131 2.0 2.0 0.00 0.00 0.00 74 1005.8
20260505211310 87 240 1.0 3.0 0.00 0.00 0.00 72 1005.9
20260505210806 87 238 1.0 2.0 0.00 0.00 0.00 73 1005.8
20260505210303 85 261 1.0 3.0 0.00 0.00 0.00 73 1006.0
20260505205800 85 268 1.0 2.0 0.00 0.00 0.00 73 1006.1
20260505205259 85 228 2.0 3.0 0.00 0.00 0.00 74 1006.1
20260505204755 85 180 3.0 5.0 0.00 0.00 0.00 73 1006.1
20260505204253 85 296 3.0 5.0 0.00 0.00 0.00 73 1006.4
20260505203750 86 304 1.0 2.0 0.00 0.00 0.00 73 1006.4
20260505203247 85 109 1.0 2.0 0.00 0.00 0.00 74 1006.7
20260505202742 85 147 0.0 1.0 0.00 0.00 0.00 74 1006.8
20260505202239 85 260 4.0 7.0 0.00 0.00 0.00 73 1006.5
20260505201735 85 237 4.0 5.0 0.00 0.00 0.00 73 1006.8
20260505201233 84 183 1.0 2.0 0.00 0.00 0.00 74 1006.7
20260505200732 84 200 1.0 1.0 0.00 0.00 0.00 74 1006.9
20260505200228 85 273 4.0 5.0 0.00 0.00 0.00 74 1007.2
20260505195723 85 282 3.0 5.0 0.00 0.00 0.00 74 1006.9
20260505195221 84 111 0.0 0.0 0.00 0.00 0.00 75 1007.2
20260505194719 86 302 1.0 2.0 0.00 0.00 0.00 74 1007.1
20260505194215 86 158 1.0 3.0 0.00 0.00 0.00 74 1007.2
20260505193710 85 251 3.0 5.0 0.00 0.00 0.00 74 1007.1
20260505193208 84 223 4.0 6.0 0.00 0.00 0.00 75 1007.0
20260505192707 83 265 4.0 5.0 0.00 0.00 0.00 75 1007.1
20260505192204 83 231 4.0 5.0 0.00 0.00 0.00 75 1007.0
20260505191702 83 232 1.0 3.0 0.00 0.00 0.00 76 1007.1
20260505191200 83 266 3.0 5.0 0.00 0.00 0.00 76 1007.3
20260505190656 83 139 3.0 5.0 0.00 0.00 0.00 75 1007.4
20260505190155 83 234 1.0 3.0 0.00 0.00 0.00 76 1007.3
20260505185653 83 155 1.0 2.0 0.00 0.00 0.00 76 1007.3
20260505185149 83 168 1.0 2.0 0.00 0.00 0.00 76 1007.3
20260505184645 83 259 5.0 6.0 0.00 0.00 0.00 76 1007.3
20260505184143 83 274 3.0 5.0 0.00 0.00 0.00 76 1007.6
20260505183639 82 198 3.0 5.0 0.00 0.00 0.00 76 1007.3
20260505183137 82 188 2.0 2.0 0.00 0.00 0.00 77 1007.7
20260505182633 82 161 3.0 5.0 0.00 0.00 0.00 77 1007.8
20260505182130 82 204 3.0 3.0 0.00 0.00 0.00 77 1007.7
20260505181626 82 169 2.0 2.0 0.00 0.00 0.00 78 1007.7
20260505181124 82 216 5.0 6.0 0.00 0.00 0.00 77 1007.7
20260505180620 81 157 1.0 2.0 0.00 0.00 0.00 78 1007.8
20260505180118 81 133 2.0 5.0 0.00 0.00 0.00 79 1007.7
20260505175613 81 151 1.0 2.0 0.00 0.00 0.00 79 1007.8
20260505175110 81 260 0.0 0.0 0.00 0.00 0.00 79 1008.1
20260505174607 81 155 2.0 3.0 0.00 0.00 0.00 79 1008.0
20260505174103 81 136 2.0 3.0 0.00 0.00 0.00 79 1007.9
20260505173559 81 174 1.0 2.0 0.00 0.00 0.00 79 1008.1
20260505173056 81 174 2.0 3.0 0.00 0.00 0.00 79 1008.0
20260505172554 81 253 4.0 6.0 0.00 0.00 0.00 78 1007.9
20260505172050 81 154 2.0 5.0 0.00 0.00 0.00 78 1008.0
20260505171545 82 169 1.0 2.0 0.00 0.00 0.00 78 1007.9
20260505171043 81 253 4.0 6.0 0.00 0.00 0.00 78 1007.8
20260505170539 80 190 3.0 5.0 0.00 0.00 0.00 79 1008.1
20260505170036 80 123 0.0 1.0 0.00 0.00 0.00 80 1008.3
20260505165531 80 258 2.0 5.0 0.00 0.00 0.00 80 1008.1
20260505165027 80 210 0.0 0.0 0.00 0.00 0.00 80 1008.2
20260505164523 80 252 1.0 2.0 0.00 0.00 0.00 80 1008.4
20260505164021 80 230 3.0 5.0 0.00 0.00 0.00 80 1008.1
20260505163519 79 246 1.0 3.0 0.00 0.00 0.00 81 1008.3
20260505163015 78 220 3.0 3.0 0.00 0.00 0.00 82 1008.2
20260505162509 78 267 4.0 5.0 0.00 0.00 0.00 82 1008.3
20260505162006 78 166 3.0 3.0 0.00 0.00 0.00 82 1008.3
20260505161503 78 198 2.0 2.0 0.00 0.00 0.00 82 1008.3
20260505161000 78 234 0.0 1.0 0.00 0.00 0.00 81 1008.4
20260505160458 78 234 1.0 2.0 0.00 0.00 0.00 82 1008.2